TimePDT,TemperatureF,Dew PointF,Humidity,Sea Level PressureIn,VisibilityMPH,Wind Direction,Wind SpeedMPH,Gust SpeedMPH,PrecipitationIn,Events,Conditions,WindDirDegrees,DateUTC
12:53 AM,48.0,42.1,80,29.98,10.0,SSW,3.5,-,0.00,,Overcast,210,2012-10-15 07:53:00
1:53 AM,50.0,42.1,74,29.98,10.0,West,5.8,-,N/A,,Overcast,270,2012-10-15 08:53:00
2:53 AM,50.0,46.9,89,29.99,10.0,NNE,4.6,-,0.02,Rain,Light Rain,30,2012-10-15 09:53:00
3:53 AM,51.1,48.0,89,29.98,10.0,NE,8.1,-,0.00,Rain,Light Rain,50,2012-10-15 10:53:00
4:53 AM,50.0,48.0,93,29.99,10.0,NE,4.6,-,0.03,Rain,Light Rain,50,2012-10-15 11:53:00
5:53 AM,46.9,46.0,97,30.00,10.0,ESE,5.8,-,0.01,,Mostly Cloudy,120,2012-10-15 12:53:00
6:53 AM,48.0,46.0,93,30.01,10.0,Calm,Calm,-,N/A,,Overcast,0,2012-10-15 13:53:00
7:53 AM,48.9,46.9,93,30.03,10.0,North,3.5,-,N/A,,Overcast,10,2012-10-15 14:53:00
8:53 AM,52.0,48.9,89,30.06,10.0,WSW,4.6,-,N/A,,Mostly Cloudy,250,2012-10-15 15:53:00
9:53 AM,53.1,50.0,89,30.06,10.0,Calm,Calm,-,N/A,,Overcast,0,2012-10-15 16:53:00
10:53 AM,60.1,51.1,72,30.04,10.0,NE,3.5,-,N/A,,Scattered Clouds,40,2012-10-15 17:53:00
11:53 AM,62.1,50.0,65,30.02,10.0,SW,5.8,-,N/A,,Mostly Cloudy,220,2012-10-15 18:53:00
12:53 PM,64.9,48.9,56,29.99,10.0,South,13.8,-,N/A,,Mostly Cloudy,170,2012-10-15 19:53:00
1:53 PM,64.9,48.0,54,29.96,10.0,SSW,4.6,-,N/A,,Mostly Cloudy,210,2012-10-15 20:53:00
2:53 PM,68.0,46.9,47,29.93,10.0,South,16.1,31.1,N/A,,Partly Cloudy,190,2012-10-15 21:53:00
3:53 PM,66.0,46.9,50,29.91,10.0,South,15.0,-,N/A,,Mostly Cloudy,170,2012-10-15 22:53:00
4:53 PM,66.0,46.9,50,29.90,10.0,South,6.9,-,N/A,,Mostly Cloudy,170,2012-10-15 23:53:00
5:53 PM,62.1,46.9,58,29.89,10.0,South,6.9,-,N/A,,Partly Cloudy,190,2012-10-16 00:53:00
6:53 PM,59.0,48.9,69,29.87,10.0,East,6.9,-,N/A,,Partly Cloudy,100,2012-10-16 01:53:00
7:53 PM,59.0,48.9,69,29.87,10.0,ESE,4.6,-,N/A,,Overcast,120,2012-10-16 02:53:00
8:53 PM,57.0,51.1,81,29.86,10.0,ESE,9.2,-,0.00,,Overcast,120,2012-10-16 03:53:00
9:53 PM,57.9,52.0,81,29.84,10.0,East,10.4,-,N/A,,Overcast,100,2012-10-16 04:53:00
10:53 PM,57.0,52.0,83,29.80,10.0,SE,12.7,-,N/A,,Mostly Cloudy,140,2012-10-16 05:53:00
11:53 PM,59.0,51.1,75,29.75,10.0,SSE,23.0,-,N/A,,Scattered Clouds,150,2012-10-16 06:53:00